RH
21 22 22 21 20 20 25 26 27 28 29 28 27 27 26 28 35 37 39 50 60 77 50 61 64 84 91 95 88 83 87 87 91 95 90 88 82 81 71 62 73 70 89 85 82 85 79 70 77 83 76 72 52 54
56 56 58 60 55 43 36 33 32 32 32 35 34 30 31 28 29 32 45 59 71 85 58 74 65 64 70 79 86 89 90 88 97 96 98 93 90 94 96 86 79 75 72 74 72 72 70 65 55 62 61 72 61 56
40 41 41 44 47 55 62 60 49 44 37 38 39 42 39 35 37 41 57 74 85 88 74 71 69 72 63 62 72 79 65 69 81 94 93 95 92 84 91 83 74 80 82 93 64 49 47 46 53 57 59 58 61 60
20 17 17 19 22 26 38 60 74 69 56 41 44 55 66 62 51 53 70 77 89 94 92 55 74 67 64 61 56 60 60 63 66 71 78 81 89 82 91 96 95 95 86 71 57 50 46 43 47 54 55 62 61 65
17 18 20 23 25 24 25 37 57 79 70 58 57 68 72 68 62 67 72 74 78 98 97 73 69 61 64 57 67 72 78 67 74 82 84 85 76 83 81 82 73 65 66 57 56 54 52 56 48 57 64 70 76 76
25 30 45 53 62 60 41 35 45 82 82 77 75 79 66 66 71 76 67 70 86 89 86 72 54 60 56 63 57 62 66 73 78 91 82 83 85 88 90 95 66 57 52 48 46 47 46 41 42 48 54 55 60 62
29 37 54 44 50 73 45 43 51 90 94 79 74 72 66 68 73 65 67 94 94 96 93 77 56 83 69 61 65 83 89 98 98 93 88 89 85 94 92 88 75 60 46 39 35 36 37 40 41 45 46 54 58 48
29 37 60 51 35 38 46 53 90 98 88 77 72 73 78 71 56 55 67 72 70 88 94 80 65 66 82 94 92 87 87 93 91 92 90 85 89 90 89 74 57 45 49 49 50 56 57 54 52 52 53 57 56 54
27 36 57 76 93 95 91 93 95 92 77 70 75 73 63 50 62 70 71 74 82 84 83 78 70 79 89 92 95 98 98 98 95 89 86 95 97 82 59 50 47 52 57 60 63 71 73 67 59 58 55 57 55 55
27 29 44 54 59 63 64 62 60 62 60 57 52 50 57 57 66 86 87 80 77 71 65 59 65 77 86 93 97 98 98 99 96 90 85 80 60 45 43 48 54 63 65 76 84 86 81 64 61 64 58 57 58 58
27 32 35 42 44 46 46 45 46 50 53 59 58 72 96 82 80 87 80 74 69 69 69 63 68 74 75 85 94 95 86 81 78 77 71 67 53 56 69 71 57 60 83 88 94 90 74 64 62 62 63 64 68 70
33 31 34 36 40 44 47 50 55 64 77 90 94 96 94 90 93 90 90 88 89 91 85 86 86 87 86 90 99 88 85 75 67 68 74 62 64 78 85 70 72 95 97 91 90 88 89 89 90 90 87 79 77 74
48 48 51 49 52 54 61 69 87 89 87 91 95 91 88 89 96 94 91 88 94 87 98 97 97 94 96 95 90 88 73 65 55 67 66 88 83 89 88 83 87 94 92 89 88 84 82 75 72 68 69 70 72 84
68 60 61 64 66 69 74 79 82 89 97 98 97 96 97 97 96 96 97 98 98 94 87 89 97 98 91 89 84 75 62 59 65 63 75 93 84 85 87 88 87 91 89 87 79 77 78 86 92 87 85 84 80 76
81 90 91 89 82 84 87 89 89 92 96 97 98 97 98 97 93 94 87 88 88 86 85 83 78 80 77 71 67 63 65 64 60 67 97 92 83 86 85 86 84 84 85 85 82 73 74 76 79 90 96 92 88 88
54 62 72 81 88 93 94 97 97 99 97 96 95 91 85 83 85 84 81 80 83 78 75 83 91 82 75 70 73 71 64 62 85 99 95 88 87 92 89 85 78 70 71 75 80 80 76 73 73 78 82 89 89 85
56 64 63 62 63 69 76 80 83 87 86 84 80 76 75 74 74 76 75 72 73 77 80 88 90 82 81 91 89 82 92 98 93 89 83 90 90 95 95 87 81 77 75 78 77 75 77 75 70 66 67 69 70 71
65 76 70 66 66 64 61 65 72 76 72 65 65 64 63 65 68 71 73 76 75 73 73 83 85 79 80 79 79 94 96 93 88 84 87 93 91 96 92 89 88 85 83 83 84 81 78 77 77 73 70 69 71 69
24 34 47 57 60 71 80 80 73 64 54 63 62 60 59 63 67 71 73 76 80 82 81 77 77 76 75 86 91 88 88 87 85 83 86 91 96 97 97 96 92 91 90 87 84 85 86 85 83 82 77 74 76 73
24 23 21 24 23 40 57 76 83 79 72 80 78 72 72 72 73 75 75 80 85 88 92 91 87 94 95 94 95 95 93 89 88 87 89 94 94 95 94 93 93 93 92 91 82 81 84 86 87 85 84 83 84 79
36 37 34 31 41 48 48 49 48 50 63 63 61 69 65 69 76 63 71 75 78 84 82 92 98 98 98 97 96 95 94 91 91 91 89 89 90 90 90 91 91 90 90 90 88 79 78 83 87 88 88 89 88 88
59 51 44 52 50 58 57 54 58 55 58 52 50 52 52 52 54 63 67 65 59 65 80 86 88 89 92 95 94 94 92 88 87 87 89 89 89 87 86 85 85 86 87 88 88 88 79 74 82 88 89 94 92 92
53 57 60 53 49 52 55 56 58 59 63 62 63 63 65 64 67 75 74 67 72 72 72 67 57 57 63 65 68 71 69 68 67 68 70 75 78 84 88 87 86 88 87 86 87 87 88 79 72 79 89 92 93 95
53 50 43 42 45 48 45 46 50 50 55 65 66 70 73 73 78 76 72 72 93 87 84 79 74 69 69 73 75 73 69 64 60 59 60 61 62 64 71 80 86 89 91 92 90 88 89 88 82 77 80 86 88 89
52 48 46 51 51 53 56 57 58 59 62 66 72 71 72 79 79 79 82 92 90 87 87 85 85 82 80 79 77 77 74 67 64 63 63 67 68 60 56 57 64 76 87 93 96 96 95 93 92 87 84 85 88 90
48 45 49 46 41 44 45 49 52 62 61 63 62 69 73 76 80 75 87 88 89 91 94 94 91 87 86 88 85 81 77 74 69 64 62 66 64 66 70 70 61 56 69 80 90 96 97 97 98 97 96 96 96 96
50 46 40 39 39 40 46 48 48 52 55 61 67 70 71 74 79 86 85 88 89 90 90 92 93 91 89 88 87 83 77 74 74 69 61 56 59 65 75 79 79 77 71 68 73 83 93 97 98 98 98 98 98 98
41 38 40 39 40 47 51 50 51 55 61 68 63 71 74 79 82 83 85 87 86 85 84 85 86 83 77 75 70 67 64 62 61 62 62 60 60 63 71 79 82 84 84 81 77 73 81 86 96 98 98 98 98 98
34 38 40 39 46 50 50 54 58 63 66 65 66 70 76 76 77 79 81 84 86 83 81 77 73 69 67 67 69 68 66 65 64 62 60 63 63 64 64 68 81 85 87 88 90 90 84 81 87 91 98 98 98 98
40 43 45 45 52 54 58 64 63 58 55 57 59 62 71 76 76 77 79 80 82 79 75 71 69 69 70 70 72 72 74 74 73 72 68 62 63 69 69 67 65 73 84 90 93 95 96 93 89 89 92 98 98 98
46 47 53 57 48 51 58 51 47 53 54 61 63 63 76 77 78 78 78 80 79 77 77 77 77 75 74 75 76 75 76 80 80 80 77 73 67 68 72 72 70 69 73 80 89 96 98 98 96 94 92 96 98 98
52 54 58 57 55 54 52 56 47 45 51 59 64 75 76 78 78 82 88 86 88 89 87 83 81 82 81 81 81 80 81 82 80 80 79 75 70 70 72 75 76 75 76 81 88 94 98 99 98 97 97 98 98 98
52 56 58 53 52 49 45 46 48 50 59 62 75 76 80 87 88 89 91 92 93 90 88 90 89 87 85 84 83 81 77 79 82 81 78 76 76 77 80 81 82 83 84 87 94 99 99 98 96 97 98 98 98 98